{"data":{"norad_id":81488,"epoch":"2026-09-17T21:34:42.155328Z","epoch_age_seconds":239821,"freshness":"STALE","line1":"1 81488U          26260.89909902  .00000313  00000+0  50372-3 0  9997","line2":"2 81488  99.9628 142.2616 0045066  26.4665  34.2968 13.56715291634483","mean_motion":13.56715291,"eccentricity":0.0045066,"inclination_deg":99.9628,"raan_deg":142.2616,"arg_perigee_deg":26.4665,"mean_anomaly_deg":34.2968,"bstar":0.00050372,"rev_number":63448,"period_min":106.1387020219,"perigee_km":1014.1884710066,"apogee_km":1081.1186062895,"semimajor_km":7425.7905386481,"source":"CELESTRAK","updated_at":"2026-09-20T09:00:32.389565Z"}}